Time,TemperatureF,DewpointF,PressureIn,WindDirection,WindDirectionDegrees,WindSpeedMPH,WindSpeedGustMPH,Humidity,HourlyPrecipIn,Conditions,Clouds,dailyrainin,SoftwareType,DateUTC
2013-04-20 00:00:00,63.5,6.0,29.85,North,0,0.0,0.0,1,0.00,,,0.00,WUHU216HW,2013-04-20 04:00:00,
2013-04-20 00:01:00,63.5,6.0,29.85,North,0,0.0,0.0,1,0.00,,,0.00,WUHU216HW,2013-04-20 04:01:00,
2013-04-20 00:06:00,63.5,6.0,29.85,North,0,0.0,0.0,1,0.00,,,0.00,WUHU216HW,2013-04-20 04:06:00,
2013-04-20 00:30:00,61.6,22.2,29.88,North,0,0.0,0.0,22,0.00,,,0.00,WUHU216HW,2013-04-20 04:30:00,
2013-04-20 00:35:00,61.6,22.2,29.88,North,0,0.0,0.0,22,0.00,,,0.00,WUHU216HW,2013-04-20 04:35:00,
2013-04-20 01:00:00,59.8,32.6,29.88,North,0,0.0,0.0,36,0.00,,,0.00,WUHU216HW,2013-04-20 05:00:00,
2013-04-20 01:05:00,59.8,32.6,29.88,North,0,0.0,0.0,36,0.00,,,0.00,WUHU216HW,2013-04-20 05:05:00,
2013-04-20 01:30:00,58.1,33.2,29.90,North,0,0.0,0.0,39,0.00,,,0.00,WUHU216HW,2013-04-20 05:30:00,
2013-04-20 01:35:00,58.1,33.2,29.90,North,0,0.0,0.0,39,0.00,,,0.00,WUHU216HW,2013-04-20 05:35:00,
2013-04-20 02:00:00,56.7,34.4,29.91,North,0,0.0,0.0,43,0.00,,,0.00,WUHU216HW,2013-04-20 06:00:00,
2013-04-20 02:05:00,56.7,34.4,29.91,North,0,0.0,0.0,43,0.00,,,0.00,WUHU216HW,2013-04-20 06:05:00,
2013-04-20 02:30:00,55.6,38.7,29.91,North,0,0.0,0.0,53,0.00,,,0.00,WUHU216HW,2013-04-20 06:30:00,
2013-04-20 02:35:00,55.6,38.7,29.91,North,0,0.0,0.0,53,0.00,,,0.00,WUHU216HW,2013-04-20 06:35:00,
2013-04-20 03:00:00,55.1,39.6,29.93,North,0,0.0,0.0,56,0.00,,,0.00,WUHU216HW,2013-04-20 07:00:00,
2013-04-20 03:05:00,55.1,39.6,29.93,North,0,0.0,0.0,56,0.00,,,0.00,WUHU216HW,2013-04-20 07:05:00,
2013-04-20 03:30:00,54.2,40.1,29.96,North,0,0.0,0.0,59,0.00,,,0.00,WUHU216HW,2013-04-20 07:30:00,
2013-04-20 03:35:00,54.2,40.1,29.96,North,0,0.0,0.0,59,0.00,,,0.00,WUHU216HW,2013-04-20 07:35:00,
2013-04-20 04:00:00,53.1,38.7,29.96,North,0,0.0,0.0,58,0.00,,,0.00,WUHU216HW,2013-04-20 08:00:00,
2013-04-20 04:05:00,53.1,38.7,29.96,North,0,0.0,0.0,58,0.00,,,0.00,WUHU216HW,2013-04-20 08:05:00,
2013-04-20 04:30:00,51.5,38.9,29.98,North,0,0.0,0.0,62,0.00,,,0.00,WUHU216HW,2013-04-20 08:30:00,
2013-04-20 04:35:00,51.5,38.9,29.98,North,0,0.0,0.0,62,0.00,,,0.00,WUHU216HW,2013-04-20 08:35:00,
2013-04-20 05:00:00,50.4,37.8,29.99,North,0,0.0,0.0,62,0.00,,,0.00,WUHU216HW,2013-04-20 09:00:00,
2013-04-20 05:05:00,50.4,37.8,29.99,North,0,0.0,0.0,62,0.00,,,0.00,WUHU216HW,2013-04-20 09:05:00,
2013-04-20 05:30:00,49.7,37.2,30.00,North,0,0.0,0.0,62,0.00,,,0.00,WUHU216HW,2013-04-20 09:30:00,
2013-04-20 05:35:00,49.7,37.2,30.00,North,0,0.0,0.0,62,0.00,,,0.00,WUHU216HW,2013-04-20 09:35:00,
2013-04-20 06:00:00,48.6,35.8,30.01,North,0,0.0,0.0,61,0.00,,,0.00,WUHU216HW,2013-04-20 10:00:00,
2013-04-20 06:05:00,48.6,35.8,30.01,North,0,0.0,0.0,61,0.00,,,0.00,WUHU216HW,2013-04-20 10:05:00,
2013-04-20 06:30:00,48.1,36.1,30.03,North,0,0.0,0.0,63,0.00,,,0.00,WUHU216HW,2013-04-20 10:30:00,
2013-04-20 06:35:00,48.1,36.1,30.03,North,0,0.0,0.0,63,0.00,,,0.00,WUHU216HW,2013-04-20 10:35:00,
2013-04-20 07:00:00,47.5,35.6,30.04,North,0,0.0,0.0,63,0.00,,,0.00,WUHU216HW,2013-04-20 11:00:00,
2013-04-20 07:05:00,47.5,35.6,30.04,North,0,0.0,0.0,63,0.00,,,0.00,WUHU216HW,2013-04-20 11:05:00,
2013-04-20 07:30:00,47.2,35.2,30.07,North,0,0.0,0.0,63,0.00,,,0.00,WUHU216HW,2013-04-20 11:30:00,
2013-04-20 07:35:00,47.2,35.2,30.07,North,0,0.0,0.0,63,0.00,,,0.00,WUHU216HW,2013-04-20 11:35:00,
2013-04-20 08:00:00,47.0,34.7,30.09,North,0,0.0,0.0,62,0.00,,,0.00,WUHU216HW,2013-04-20 12:00:00,
2013-04-20 08:05:00,47.0,34.7,30.09,North,0,0.0,0.0,62,0.00,,,0.00,WUHU216HW,2013-04-20 12:05:00,
2013-04-20 08:30:00,46.4,34.5,30.10,North,0,0.0,0.0,63,0.00,,,0.00,WUHU216HW,2013-04-20 12:30:00,
2013-04-20 08:35:00,46.4,34.5,30.10,North,0,0.0,0.0,63,0.00,,,0.00,WUHU216HW,2013-04-20 12:35:00,
2013-04-20 09:00:00,47.5,34.4,30.12,North,0,0.0,0.0,60,0.00,,,0.00,WUHU216HW,2013-04-20 13:00:00,
2013-04-20 09:05:00,47.5,34.4,30.12,North,0,0.0,0.0,60,0.00,,,0.00,WUHU216HW,2013-04-20 13:05:00,
2013-04-20 09:30:00,49.9,34.3,30.12,North,0,0.0,0.0,55,0.00,,,0.00,WUHU216HW,2013-04-20 13:30:00,
2013-04-20 09:35:00,49.9,34.3,30.12,North,0,0.0,0.0,55,0.00,,,0.00,WUHU216HW,2013-04-20 13:35:00,
2013-04-20 10:00:00,50.6,35.8,30.13,North,0,0.0,0.0,57,0.00,,,0.00,WUHU216HW,2013-04-20 14:00:00,
2013-04-20 10:05:00,50.6,35.8,30.13,North,0,0.0,0.0,57,0.00,,,0.00,WUHU216HW,2013-04-20 14:05:00,
2013-04-20 10:30:00,52.0,35.8,30.14,North,0,0.0,0.0,54,0.00,,,0.00,WUHU216HW,2013-04-20 14:30:00,
2013-04-20 10:35:00,52.0,35.8,30.14,North,0,0.0,0.0,54,0.00,,,0.00,WUHU216HW,2013-04-20 14:35:00,
2013-04-20 11:00:00,53.3,34.0,30.16,North,0,0.0,0.0,48,0.00,,,0.00,WUHU216HW,2013-04-20 15:00:00,
2013-04-20 11:05:00,53.3,34.0,30.16,North,0,0.0,0.0,48,0.00,,,0.00,WUHU216HW,2013-04-20 15:05:00,
2013-04-20 11:30:00,53.5,33.0,30.16,North,0,0.0,0.0,46,0.00,,,0.00,WUHU216HW,2013-04-20 15:30:00,
2013-04-20 11:35:00,53.5,33.0,30.16,North,0,0.0,0.0,46,0.00,,,0.00,WUHU216HW,2013-04-20 15:35:00,
2013-04-20 12:00:00,55.1,33.9,30.15,North,0,0.0,0.0,45,0.00,,,0.00,WUHU216HW,2013-04-20 16:00:00,
2013-04-20 12:05:00,55.1,33.9,30.15,North,0,0.0,0.0,45,0.00,,,0.00,WUHU216HW,2013-04-20 16:05:00,
2013-04-20 12:30:00,55.6,35.0,30.15,North,0,0.0,0.0,46,0.00,,,0.00,WUHU216HW,2013-04-20 16:30:00,
2013-04-20 12:35:00,55.6,35.0,30.15,North,0,0.0,0.0,46,0.00,,,0.00,WUHU216HW,2013-04-20 16:35:00,
2013-04-20 13:00:00,56.7,34.9,30.14,North,0,0.0,0.0,44,0.00,,,0.00,WUHU216HW,2013-04-20 17:00:00,
2013-04-20 13:05:00,56.7,34.9,30.14,North,0,0.0,0.0,44,0.00,,,0.00,WUHU216HW,2013-04-20 17:05:00,
2013-04-20 13:30:00,58.5,36.0,30.14,North,0,0.0,0.0,43,0.00,,,0.00,WUHU216HW,2013-04-20 17:30:00,
2013-04-20 13:35:00,58.5,36.0,30.14,North,0,0.0,0.0,43,0.00,,,0.00,WUHU216HW,2013-04-20 17:35:00,
2013-04-20 14:00:00,60.1,39.2,30.14,North,0,0.0,0.0,46,0.00,,,0.00,WUHU216HW,2013-04-20 18:00:00,
2013-04-20 14:05:00,60.1,39.2,30.14,North,0,0.0,0.0,46,0.00,,,0.00,WUHU216HW,2013-04-20 18:05:00,
2013-04-20 14:30:00,60.5,35.3,30.14,North,0,0.0,0.0,39,0.00,,,0.00,WUHU216HW,2013-04-20 18:30:00,
2013-04-20 14:35:00,60.5,35.3,30.14,North,0,0.0,0.0,39,0.00,,,0.00,WUHU216HW,2013-04-20 18:35:00,
2013-04-20 15:00:00,62.3,37.6,30.13,North,0,0.0,0.0,40,0.00,,,0.00,WUHU216HW,2013-04-20 19:00:00,
2013-04-20 15:05:00,62.3,37.6,30.13,North,0,0.0,0.0,40,0.00,,,0.00,WUHU216HW,2013-04-20 19:05:00,
2013-04-20 16:00:00,63.0,37.6,30.12,North,0,0.0,0.0,39,0.00,,,0.00,WUHU216HW,2013-04-20 20:00:00,
2013-04-20 16:05:00,63.0,37.6,30.12,North,0,0.0,0.0,39,0.00,,,0.00,WUHU216HW,2013-04-20 20:05:00,
2013-04-20 16:10:00,63.0,37.6,30.12,North,0,0.0,0.0,39,0.00,,,0.00,WUHU216HW,2013-04-20 20:10:00,
2013-04-20 16:30:00,62.8,37.5,30.12,North,0,0.0,0.0,39,0.00,,,0.00,WUHU216HW,2013-04-20 20:30:00,
2013-04-20 16:35:00,62.8,37.5,30.12,North,0,0.0,0.0,39,0.00,,,0.00,WUHU216HW,2013-04-20 20:35:00,
2013-04-20 17:00:00,62.3,36.9,30.13,North,0,0.0,0.0,39,0.00,,,0.00,WUHU216HW,2013-04-20 21:00:00,
2013-04-20 17:05:00,62.3,36.9,30.13,North,0,0.0,0.0,39,0.00,,,0.00,WUHU216HW,2013-04-20 21:05:00,
2013-04-20 17:30:00,62.6,36.5,30.13,North,0,0.0,0.0,38,0.00,,,0.00,WUHU216HW,2013-04-20 21:30:00,
2013-04-20 17:35:00,62.6,36.5,30.13,North,0,0.0,0.0,38,0.00,,,0.00,WUHU216HW,2013-04-20 21:35:00,
2013-04-20 18:00:00,63.7,38.3,30.14,North,0,0.0,0.0,39,0.00,,,0.00,WUHU216HW,2013-04-20 22:00:00,
2013-04-20 18:05:00,63.7,38.3,30.14,North,0,0.0,0.0,39,0.00,,,0.00,WUHU216HW,2013-04-20 22:05:00,
2013-04-20 18:30:00,65.9,39.4,30.16,North,0,0.0,0.0,38,0.00,,,0.00,WUHU216HW,2013-04-20 22:30:00,
2013-04-20 18:35:00,65.9,39.4,30.16,North,0,0.0,0.0,38,0.00,,,0.00,WUHU216HW,2013-04-20 22:35:00,
2013-04-20 19:00:00,62.6,40.9,30.16,North,0,0.0,0.0,45,0.00,,,0.00,WUHU216HW,2013-04-20 23:00:00,
2013-04-20 19:05:00,62.6,40.9,30.16,North,0,0.0,0.0,45,0.00,,,0.00,WUHU216HW,2013-04-20 23:05:00,
2013-04-20 19:30:00,59.8,41.1,30.16,North,0,0.0,0.0,50,0.00,,,0.00,WUHU216HW,2013-04-20 23:30:00,
2013-04-20 19:35:00,59.8,41.1,30.16,North,0,0.0,0.0,50,0.00,,,0.00,WUHU216HW,2013-04-20 23:35:00,
2013-04-20 20:00:00,56.7,40.7,30.18,North,0,0.0,0.0,55,0.00,,,0.00,WUHU216HW,2013-04-21 00:00:00,
2013-04-20 20:05:00,56.7,40.7,30.18,North,0,0.0,0.0,55,0.00,,,0.00,WUHU216HW,2013-04-21 00:05:00,
2013-04-20 20:30:00,54.0,40.0,30.21,North,0,0.0,0.0,59,0.00,,,0.00,WUHU216HW,2013-04-21 00:30:00,
2013-04-20 20:35:00,54.0,40.0,30.21,North,0,0.0,0.0,59,0.00,,,0.00,WUHU216HW,2013-04-21 00:35:00,
2013-04-20 21:00:00,50.6,38.8,30.22,North,0,0.0,0.0,64,0.00,,,0.00,WUHU216HW,2013-04-21 01:00:00,
2013-04-20 21:05:00,50.6,38.8,30.22,North,0,0.0,0.0,64,0.00,,,0.00,WUHU216HW,2013-04-21 01:05:00,
2013-04-20 21:30:00,48.2,36.6,30.24,North,0,0.0,0.0,64,0.00,,,0.00,WUHU216HW,2013-04-21 01:30:00,
2013-04-20 21:35:00,48.2,36.6,30.24,North,0,0.0,0.0,64,0.00,,,0.00,WUHU216HW,2013-04-21 01:35:00,
2013-04-20 22:00:00,47.2,35.2,30.25,North,0,0.0,0.0,63,0.00,,,0.00,WUHU216HW,2013-04-21 02:00:00,
2013-04-20 22:05:00,47.2,35.2,30.25,North,0,0.0,0.0,63,0.00,,,0.00,WUHU216HW,2013-04-21 02:05:00,
2013-04-20 22:30:00,45.7,31.3,30.26,North,0,0.0,0.0,57,0.00,,,0.00,WUHU216HW,2013-04-21 02:30:00,
2013-04-20 22:35:00,45.7,31.3,30.26,North,0,0.0,0.0,57,0.00,,,0.00,WUHU216HW,2013-04-21 02:35:00,
2013-04-20 23:00:00,45.2,30.8,30.26,North,0,0.0,0.0,57,0.00,,,0.00,WUHU216HW,2013-04-21 03:00:00,
2013-04-20 23:05:00,45.2,30.8,30.26,North,0,0.0,0.0,57,0.00,,,0.00,WUHU216HW,2013-04-21 03:05:00,
2013-04-20 23:30:00,45.0,30.3,30.27,North,0,0.0,0.0,56,0.00,,,0.00,WUHU216HW,2013-04-21 03:30:00,
2013-04-20 23:35:00,45.0,30.3,30.27,North,0,0.0,0.0,56,0.00,,,0.00,WUHU216HW,2013-04-21 03:35:00,